Tracking 19709 objects as of 19-Jun-2019
HD Live streaming from Space Station
objects crossing your sky now

METEOR 2-8 DEB

Track METEOR 2-8 DEB now!
10-day predictions


NORAD ID: 36349
Int'l Code: 1982-025AK
Perigee: 841.4 km
Apogee: 857.2 km
Inclination: 82.5 °
Period: 101.8 minutes
Semi major axis: 7220 km
RCS: 0.0012 m2 (small)
Launch date: March 25, 1982
Source: Commonwealth of Independent States (former USSR) (CIS)
Launch site: PLESETSK MISSILE AND SPACE COMPLEX (PKMTR)

Note: This is SATELLITE DEBRIS
aabbcc
Your satellite tracking list
Your tracking list is empty




NASA's NSSDC Master Catalog

Two Line Element Set (TLE):
1 36349U 82025AK  19168.27336272  .00000965  00000-0  48993-3 0  9995
2 36349  82.5181 150.7950 0010946 328.1756  31.8759 14.15049891847106
Source of the keplerian elements: AFSPC